Tracking 35237 objects as of 6-Sep-2026
HD Live streaming from Space Station
objects crossing your sky now

STARLINK-32672

Track STARLINK-32672 now!
10-day predictions
STARLINK-32672 is classified as:


NORAD ID: 62195
Int'l Code: 2024-229D
Launch date: December 4, 2024
Source: United States (US)
Launch site: AIR FORCE EASTERN TEST RANGE (AFETR)
Your satellite tracking list
Your tracking list is empty




NASA's NSSDC Master Catalog

Two Line Element Set (TLE):
1 62195U 24229D   26249.29497816  .00003688  00000-0  14346-3 0  9997
2 62195  43.0018 330.6627 0001532 261.9456  98.1222 15.27580684 98188
Source of the keplerian elements: AFSPC